Showing default

DIADEME 1, 2674

Orbit data source: Space-Track

DIADEME 1, 2674 is a payload satellite owned by CNES (FR) in LEO that was launched on Wed, 08 Feb 1967 UTC via a DIAMANT A launch vehicle from the Hamma Guira Space Track Range (HGSTR). Payload-class satellites include a variety of spacecraft equipped with specific instruments for various scientific and technological missions. These include communications satellites like Starlink; space stations such as the ISS; scientific satellites like the Hubble; Earth observation satellites from companies like Planet Labs, Umbra, and HawkEye 360; GPS; miniature CubeSats for education and research; and military/defense satellites.

Loading next visibility...
Identifier
2674, 1967-011A
Orbit
LEO
Country
Flag of FRFR
Related business
Manufacturer
CNES
Mission
Spacecraft
Bus & Motor
D-1, Unknown motor
Mass
23 kg wet, 23 kg dry
Launch date (UTC)
1967-02-08 (59 years ago)
Launch vehicle
DIAMANT A
Launch site
Hamma Guira Space Track Range (HGSTR)
Object type
Payload
Rocket body
Debris
Shape & HBR
Unknown
Radar Cross Section
Medium (>0.1 m² and <1 m²)

Expand to show TLE details & history
Last TLE update: 9 hours ago

TLE from 9 hours ago
0 DIADEME 1
1  2674U 67011A   26124.20970127  .00003927  00000-0  42799-3 0  9992
2  2674  39.9157 185.4275 0206334 306.7809  51.4195 14.74391024 83616
Epoch: 2026-05-04T05:01Z
TLE epoch observation values (Epoch: 2026-05-04T05:01:58.189Z)
Latitude
-0.00001°
Longitude
-112.16714°
Altitude
558.016 km
Speed
7.632 km/s
True Right ascension
12h 21m 42s
True Declination
0° 00' 00"
Sunlit
Object was in full shadow at epoch
Visualization orbit readout
Latitude
Unknown
Longitude
Unknown
Altitude
Unknown
Speed
Unknown
Apparent Right ascension
Unknown
Apparent Declination
Unknown
Sunlit
N/A
Visualization observer readout
Local Sidereal Time
21:58:40
Azimuth
Unknown
Elevation
Unknown
Doppler factor
Unknown
Orbital elements
Apogee altitude
794.493 km
Perigee altitude
504.485 km
Semi-major axis
7,027.626 km
Eccentricity
0.02063
Inclination
39.9157°
RAAN
185.4275°
Arg. of periapsis
306.7809°
True anomaly
53.2977°
Mean anomaly
51.4195°
Eccentric anomaly
52.35559°
Mean motion
3.68409 °/min
Orbital period
97.72 mins
BSTAR
0.00042799
Loading maneuver chart data...
Computing Atmospheric mass density...

Documentation

Showing up to 5 results
|